{"data":{"norad_id":66645,"epoch":"2026-05-29T05:22:42.079296Z","epoch_age_seconds":9891600,"freshness":"OLD","line1":"1 66645U 25272A   26149.22409814  .00021890  00000+0  26640-3 0  9997","line2":"2 66645  41.4692  77.3333 0010760 301.6014  58.3774 15.59946052290281","mean_motion":15.59946052,"eccentricity":0.001076,"inclination_deg":41.4692,"raan_deg":77.3333,"arg_perigee_deg":301.6014,"mean_anomaly_deg":58.3774,"bstar":0.0002664,"rev_number":29028,"period_min":92.310884607438,"perigee_km":380.53290634309,"apogee_km":395.09323089075,"semimajor_km":6765.9500686169,"source":"CELESTRAK","updated_at":"2026-05-30T09:00:27.220183Z"}}